Time,TemperatureF,DewpointF,PressureIn,WindDirection,WindDirectionDegrees,WindSpeedMPH,WindSpeedGustMPH,Humidity,HourlyPrecipIn,Conditions,Clouds,dailyrainin,SoftwareType,DateUTC
2013-02-12 00:01:00,43.0,42.0,30.33,West,267,14.0,23.0,94,-99.99,,,-99.99,,2013-02-12 08:01:00,
2013-02-12 00:11:00,43.0,42.0,30.34,West,267,14.0,24.0,94,-99.99,,,-99.99,,2013-02-12 08:11:00,
2013-02-12 00:21:00,43.0,42.0,30.34,West,262,15.0,23.0,95,-99.99,,,-99.99,,2013-02-12 08:21:00,
2013-02-12 00:31:00,43.0,42.0,30.35,West,263,12.0,20.0,96,-99.99,,,-99.99,,2013-02-12 08:31:00,
2013-02-12 00:41:00,43.0,42.0,30.35,West,263,11.0,20.0,96,-99.99,,,-99.99,,2013-02-12 08:41:00,
2013-02-12 00:52:00,43.0,43.0,30.35,WSW,258,14.0,22.0,96,-99.99,,,-99.99,,2013-02-12 08:52:00,
2013-02-12 01:01:00,43.0,42.0,30.35,West,264,12.0,20.0,95,-99.99,,,-99.99,,2013-02-12 09:01:00,
2013-02-12 01:11:00,43.0,42.0,30.35,WSW,257,9.0,18.0,95,-99.99,,,-99.99,,2013-02-12 09:11:00,
2013-02-12 01:21:00,44.0,43.0,30.35,WSW,250,7.0,16.0,95,-99.99,,,-99.99,,2013-02-12 09:21:00,
2013-02-12 01:31:00,44.0,43.0,30.35,West,264,9.0,21.0,95,-99.99,,,-99.99,,2013-02-12 09:31:00,
2013-02-12 01:41:00,44.0,42.0,30.35,West,268,12.0,23.0,95,-99.99,,,-99.99,,2013-02-12 09:41:00,
2013-02-12 01:51:00,44.0,42.0,30.35,West,268,12.0,23.0,95,-99.99,,,-99.99,,2013-02-12 09:51:00,
2013-02-12 02:01:00,43.0,42.0,30.34,WNW,291,15.0,24.0,96,-99.99,,,-99.99,,2013-02-12 10:01:00,
2013-02-12 02:11:00,43.0,43.0,30.34,WNW,286,15.0,26.0,97,-99.99,,,-99.99,,2013-02-12 10:11:00,
2013-02-12 02:21:00,43.0,43.0,30.35,WNW,286,13.0,24.0,98,-99.99,,,-99.99,,2013-02-12 10:21:00,
2013-02-12 02:31:00,43.0,43.0,30.35,WNW,282,13.0,19.0,97,-99.99,,,-99.99,,2013-02-12 10:31:00,
2013-02-12 02:43:00,43.0,43.0,30.35,WNW,290,15.0,23.0,98,-99.99,,,-99.99,,2013-02-12 10:43:00,
2013-02-12 02:51:00,43.0,43.0,30.35,WNW,288,14.0,24.0,98,-99.99,,,-99.99,,2013-02-12 10:51:00,
2013-02-12 03:01:00,43.0,43.0,30.35,WNW,289,13.0,20.0,98,-99.99,,,-99.99,,2013-02-12 11:01:00,
2013-02-12 03:11:00,44.0,43.0,30.35,WNW,282,11.0,21.0,97,-99.99,,,-99.99,,2013-02-12 11:11:00,
2013-02-12 03:21:00,44.0,43.0,30.35,WNW,287,14.0,23.0,97,-99.99,,,-99.99,,2013-02-12 11:21:00,
2013-02-12 03:31:00,44.0,43.0,30.35,WNW,286,12.0,22.0,96,-99.99,,,-99.99,,2013-02-12 11:31:00,
2013-02-12 03:41:00,44.0,43.0,30.35,WNW,283,13.0,21.0,97,-99.99,,,-99.99,,2013-02-12 11:41:00,
2013-02-12 03:52:00,43.0,43.0,30.35,WNW,286,15.0,25.0,98,-99.99,,,-99.99,,2013-02-12 11:52:00,
2013-02-12 04:01:00,43.0,43.0,30.35,WNW,286,15.0,25.0,98,-99.99,,,-99.99,,2013-02-12 12:01:00,
2013-02-12 04:11:00,43.0,43.0,30.35,WNW,283,14.0,21.0,98,-99.99,,,-99.99,,2013-02-12 12:11:00,
2013-02-12 04:21:00,44.0,43.0,30.35,West,277,12.0,18.0,99,-99.99,,,-99.99,,2013-02-12 12:21:00,
2013-02-12 04:32:00,44.0,43.0,30.35,West,277,12.0,18.0,99,-99.99,,,-99.99,,2013-02-12 12:32:00,
2013-02-12 04:42:00,44.0,44.0,30.35,WNW,288,13.0,23.0,99,-99.99,,,-99.99,,2013-02-12 12:42:00,
2013-02-12 04:52:00,44.0,44.0,30.35,WNW,291,12.0,21.0,99,-99.99,,,-99.99,,2013-02-12 12:52:00,
2013-02-12 05:01:00,44.0,44.0,30.35,WNW,294,13.0,19.0,99,-99.99,,,-99.99,,2013-02-12 13:01:00,
2013-02-12 05:11:00,44.0,44.0,30.35,WNW,290,11.0,17.0,99,-99.99,,,-99.99,,2013-02-12 13:11:00,
2013-02-12 05:22:00,44.0,44.0,30.35,WNW,289,14.0,24.0,99,-99.99,,,-99.99,,2013-02-12 13:22:00,
2013-02-12 05:31:00,44.0,44.0,30.35,WNW,287,14.0,22.0,99,-99.99,,,-99.99,,2013-02-12 13:31:00,
2013-02-12 05:42:00,44.0,44.0,30.35,WNW,290,14.0,22.0,98,-99.99,,,-99.99,,2013-02-12 13:42:00,
2013-02-12 05:51:00,45.0,44.0,30.35,WNW,295,14.0,20.0,96,-99.99,,,-99.99,,2013-02-12 13:51:00,
2013-02-12 06:01:00,45.0,43.0,30.35,WNW,299,12.0,22.0,94,-99.99,,,-99.99,,2013-02-12 14:01:00,
2013-02-12 06:11:00,45.0,43.0,30.35,WNW,296,12.0,18.0,93,-99.99,,,-99.99,,2013-02-12 14:11:00,
2013-02-12 06:21:00,45.0,43.0,30.36,WNW,295,10.0,15.0,93,-99.99,,,-99.99,,2013-02-12 14:21:00,
2013-02-12 06:31:00,45.0,44.0,30.36,West,280,10.0,18.0,95,-99.99,,,-99.99,,2013-02-12 14:31:00,
2013-02-12 06:41:00,45.0,44.0,30.36,West,273,9.0,16.0,97,-99.99,,,-99.99,,2013-02-12 14:41:00,
2013-02-12 06:52:00,45.0,44.0,30.36,West,280,9.0,15.0,97,-99.99,,,-99.99,,2013-02-12 14:52:00,
2013-02-12 07:01:00,45.0,44.0,30.36,WNW,286,9.0,17.0,97,-99.99,,,-99.99,,2013-02-12 15:01:00,
2013-02-12 07:11:00,44.0,44.0,30.36,WNW,283,10.0,17.0,98,-99.99,,,-99.99,,2013-02-12 15:11:00,
2013-02-12 07:21:00,44.0,44.0,30.36,WNW,288,8.0,12.0,100,-99.99,,,-99.99,,2013-02-12 15:21:00,
2013-02-12 07:32:00,44.0,44.0,30.36,WNW,294,9.0,13.0,100,-99.99,,,-99.99,,2013-02-12 15:32:00,
2013-02-12 07:42:00,44.0,44.0,30.37,WNW,293,7.0,12.0,100,-99.99,,,-99.99,,2013-02-12 15:42:00,
2013-02-12 07:52:00,44.0,44.0,30.37,WNW,286,9.0,18.0,100,-99.99,,,-99.99,,2013-02-12 15:52:00,
2013-02-12 08:01:00,44.0,44.0,30.37,WNW,285,11.0,18.0,100,-99.99,,,-99.99,,2013-02-12 16:01:00,
2013-02-12 08:11:00,44.0,44.0,30.37,WNW,293,9.0,14.0,100,-99.99,,,-99.99,,2013-02-12 16:11:00,
2013-02-12 08:22:00,45.0,44.0,30.38,WNW,288,10.0,19.0,99,-99.99,,,-99.99,,2013-02-12 16:22:00,
2013-02-12 08:31:00,45.0,44.0,30.38,WNW,288,10.0,19.0,99,-99.99,,,-99.99,,2013-02-12 16:31:00,
2013-02-12 08:41:00,45.0,45.0,30.38,WNW,289,11.0,21.0,99,-99.99,,,-99.99,,2013-02-12 16:41:00,
2013-02-12 08:51:00,45.0,45.0,30.39,WNW,283,12.0,20.0,99,-99.99,,,-99.99,,2013-02-12 16:51:00,
2013-02-12 09:01:00,45.0,45.0,30.39,WNW,283,12.0,20.0,99,-99.99,,,-99.99,,2013-02-12 17:01:00,
2013-02-12 09:11:00,45.0,45.0,30.39,WNW,290,11.0,16.0,99,-99.99,,,-99.99,,2013-02-12 17:11:00,
2013-02-12 09:21:00,45.0,45.0,30.39,WNW,286,13.0,21.0,99,-99.99,,,-99.99,,2013-02-12 17:21:00,
2013-02-12 09:31:00,45.0,45.0,30.39,WNW,293,11.0,20.0,99,-99.99,,,-99.99,,2013-02-12 17:31:00,
2013-02-12 09:41:00,45.0,45.0,30.39,WNW,293,12.0,19.0,99,-99.99,,,-99.99,,2013-02-12 17:41:00,
2013-02-12 09:52:00,45.0,45.0,30.39,WNW,291,11.0,20.0,98,-99.99,,,-99.99,,2013-02-12 17:52:00,
2013-02-12 10:01:00,45.0,45.0,30.40,WNW,289,13.0,21.0,98,-99.99,,,-99.99,,2013-02-12 18:01:00,
2013-02-12 10:11:00,46.0,45.0,30.40,WNW,284,13.0,22.0,98,-99.99,,,-99.99,,2013-02-12 18:11:00,
2013-02-12 10:22:00,46.0,45.0,30.40,WNW,284,14.0,23.0,97,-99.99,,,-99.99,,2013-02-12 18:22:00,
2013-02-12 10:31:00,46.0,46.0,30.41,West,277,13.0,21.0,98,-99.99,,,-99.99,,2013-02-12 18:31:00,
2013-02-12 10:41:00,46.0,46.0,30.41,West,277,13.0,21.0,98,-99.99,,,-99.99,,2013-02-12 18:41:00,
2013-02-12 10:51:00,47.0,46.0,30.40,WNW,289,14.0,20.0,96,-99.99,,,-99.99,,2013-02-12 18:51:00,
2013-02-12 11:02:00,47.0,45.0,30.40,West,277,13.0,23.0,94,-99.99,,,-99.99,,2013-02-12 19:02:00,
2013-02-12 11:11:00,47.0,45.0,30.40,WNW,284,12.0,25.0,94,-99.99,,,-99.99,,2013-02-12 19:11:00,
2013-02-12 11:21:00,47.0,45.0,30.40,WNW,285,14.0,21.0,94,-99.99,,,-99.99,,2013-02-12 19:21:00,
2013-02-12 11:31:00,47.0,45.0,30.40,WNW,291,14.0,23.0,94,-99.99,,,-99.99,,2013-02-12 19:31:00,
2013-02-12 11:40:00,49.0,46.0,30.41,WNW,285,10.0,18.0,88,-99.99,,,-99.99,,2013-02-12 19:40:00,
2013-02-12 11:41:00,48.0,46.0,30.40,WNW,292,13.0,25.0,93,-99.99,,,-99.99,,2013-02-12 19:41:00,
2013-02-12 11:51:00,48.0,46.0,30.41,WNW,294,12.0,23.0,91,-99.99,,,-99.99,,2013-02-12 19:51:00,
2013-02-12 12:01:00,48.0,45.0,30.41,WNW,294,16.0,28.0,90,-99.99,,,-99.99,,2013-02-12 20:01:00,
2013-02-12 12:11:00,48.0,45.0,30.42,WNW,289,11.0,22.0,90,-99.99,,,-99.99,,2013-02-12 20:11:00,
2013-02-12 12:21:00,49.0,46.0,30.41,WNW,285,10.0,18.0,88,-99.99,,,-99.99,,2013-02-12 20:21:00,
2013-02-12 12:31:00,49.0,46.0,30.41,WNW,285,10.0,18.0,88,-99.99,,,-99.99,,2013-02-12 20:31:00,
2013-02-12 12:52:00,50.0,43.0,30.40,WNW,282,12.0,23.0,78,-99.99,,,-99.99,,2013-02-12 20:52:00,
2013-02-12 13:01:00,50.0,43.0,30.40,WNW,286,11.0,18.0,76,-99.99,,,-99.99,,2013-02-12 21:01:00,
2013-02-12 13:11:00,50.0,43.0,30.40,West,275,11.0,18.0,76,-99.99,,,-99.99,,2013-02-12 21:11:00,
2013-02-12 13:21:00,51.0,43.0,30.39,West,280,11.0,20.0,74,-99.99,,,-99.99,,2013-02-12 21:21:00,
2013-02-12 13:31:00,50.0,43.0,30.39,WNW,288,11.0,18.0,76,-99.99,,,-99.99,,2013-02-12 21:31:00,
2013-02-12 13:41:00,50.0,43.0,30.40,WNW,283,13.0,21.0,75,-99.99,,,-99.99,,2013-02-12 21:41:00,
2013-02-12 13:51:00,50.0,43.0,30.40,WNW,285,10.0,21.0,74,-99.99,,,-99.99,,2013-02-12 21:51:00,
2013-02-12 14:01:00,51.0,43.0,30.41,West,273,9.0,15.0,74,-99.99,,,-99.99,,2013-02-12 22:01:00,
2013-02-12 14:12:00,51.0,42.0,30.40,West,277,8.0,20.0,73,-99.99,,,-99.99,,2013-02-12 22:12:00,
2013-02-12 14:21:00,51.0,42.0,30.40,West,269,10.0,18.0,72,-99.99,,,-99.99,,2013-02-12 22:21:00,
2013-02-12 14:31:00,51.0,42.0,30.39,WNW,287,11.0,20.0,72,-99.99,,,-99.99,,2013-02-12 22:31:00,
2013-02-12 14:41:00,51.0,42.0,30.39,WNW,282,10.0,16.0,72,-99.99,,,-99.99,,2013-02-12 22:41:00,
2013-02-12 14:51:00,51.0,42.0,30.39,West,266,9.0,16.0,70,-99.99,,,-99.99,,2013-02-12 22:51:00,
2013-02-12 15:01:00,52.0,42.0,30.39,WNW,289,8.0,16.0,69,-99.99,,,-99.99,,2013-02-12 23:01:00,
2013-02-12 15:11:00,51.0,42.0,30.39,West,274,8.0,18.0,69,-99.99,,,-99.99,,2013-02-12 23:11:00,
2013-02-12 15:21:00,51.0,41.0,30.39,West,274,10.0,21.0,69,-99.99,,,-99.99,,2013-02-12 23:21:00,
2013-02-12 15:31:00,51.0,42.0,30.38,WNW,291,12.0,18.0,69,-99.99,,,-99.99,,2013-02-12 23:31:00,
2013-02-12 15:41:00,51.0,42.0,30.38,WNW,289,12.0,21.0,69,-99.99,,,-99.99,,2013-02-12 23:41:00,
2013-02-12 15:52:00,51.0,41.0,30.38,WNW,287,11.0,16.0,68,-99.99,,,-99.99,,2013-02-12 23:52:00,
2013-02-12 16:02:00,51.0,41.0,30.38,WNW,289,11.0,16.0,68,-99.99,,,-99.99,,2013-02-13 00:02:00,
2013-02-12 16:11:00,51.0,41.0,30.38,WNW,283,11.0,21.0,68,-99.99,,,-99.99,,2013-02-13 00:11:00,
2013-02-12 16:21:00,51.0,41.0,30.39,West,273,7.0,13.0,67,-99.99,,,-99.99,,2013-02-13 00:21:00,
2013-02-12 16:32:00,52.0,41.0,30.39,West,277,11.0,21.0,67,-99.99,,,-99.99,,2013-02-13 00:32:00,
2013-02-12 16:42:00,51.0,41.0,30.39,West,270,11.0,18.0,67,-99.99,,,-99.99,,2013-02-13 00:42:00,
2013-02-12 16:51:00,51.0,42.0,30.40,West,265,9.0,17.0,69,-99.99,,,-99.99,,2013-02-13 00:51:00,
2013-02-12 17:01:00,51.0,42.0,30.40,West,263,8.0,14.0,70,-99.99,,,-99.99,,2013-02-13 01:01:00,
2013-02-12 17:11:00,50.0,41.0,30.40,West,270,7.0,12.0,71,-99.99,,,-99.99,,2013-02-13 01:11:00,
2013-02-12 17:21:00,50.0,42.0,30.39,West,271,10.0,18.0,73,-99.99,,,-99.99,,2013-02-13 01:21:00,
2013-02-12 17:31:00,49.0,43.0,30.39,West,268,10.0,17.0,77,-99.99,,,-99.99,,2013-02-13 01:31:00,
2013-02-12 17:42:00,49.0,42.0,30.38,West,275,10.0,16.0,77,-99.99,,,-99.99,,2013-02-13 01:42:00,
2013-02-12 17:51:00,49.0,43.0,30.38,West,281,9.0,15.0,80,-99.99,,,-99.99,,2013-02-13 01:51:00,
2013-02-12 18:01:00,49.0,43.0,30.38,West,281,9.0,15.0,80,-99.99,,,-99.99,,2013-02-13 02:01:00,
2013-02-12 18:11:00,49.0,43.0,30.38,WNW,283,10.0,17.0,80,-99.99,,,-99.99,,2013-02-13 02:11:00,
2013-02-12 18:21:00,49.0,43.0,30.38,WNW,285,11.0,20.0,81,-99.99,,,-99.99,,2013-02-13 02:21:00,
2013-02-12 18:31:00,49.0,43.0,30.38,West,280,8.0,13.0,82,-99.99,,,-99.99,,2013-02-13 02:31:00,
2013-02-12 18:41:00,49.0,44.0,30.37,West,267,7.0,13.0,82,-99.99,,,-99.99,,2013-02-13 02:41:00,
2013-02-12 18:52:00,49.0,44.0,30.38,West,273,6.0,11.0,82,-99.99,,,-99.99,,2013-02-13 02:52:00,
2013-02-12 19:01:00,49.0,44.0,30.38,WNW,283,7.0,18.0,81,-99.99,,,-99.99,,2013-02-13 03:01:00,
2013-02-12 19:11:00,49.0,43.0,30.38,West,280,9.0,15.0,80,-99.99,,,-99.99,,2013-02-13 03:11:00,
2013-02-12 19:21:00,49.0,43.0,30.38,West,281,9.0,15.0,81,-99.99,,,-99.99,,2013-02-13 03:21:00,
2013-02-12 19:32:00,49.0,44.0,30.38,West,280,9.0,17.0,82,-99.99,,,-99.99,,2013-02-13 03:32:00,
2013-02-12 19:41:00,49.0,44.0,30.38,West,271,11.0,22.0,82,-99.99,,,-99.99,,2013-02-13 03:41:00,
2013-02-12 19:51:00,49.0,44.0,30.38,West,280,11.0,19.0,83,-99.99,,,-99.99,,2013-02-13 03:51:00,
2013-02-12 20:01:00,49.0,44.0,30.38,WNW,284,8.0,14.0,84,-99.99,,,-99.99,,2013-02-13 04:01:00,
2013-02-12 20:11:00,49.0,44.0,30.37,West,274,9.0,18.0,85,-99.99,,,-99.99,,2013-02-13 04:11:00,
2013-02-12 20:21:00,49.0,44.0,30.36,WSW,256,8.0,15.0,85,-99.99,,,-99.99,,2013-02-13 04:21:00,
2013-02-12 20:31:00,49.0,45.0,30.37,West,276,11.0,18.0,88,-99.99,,,-99.99,,2013-02-13 04:31:00,
2013-02-12 20:41:00,49.0,45.0,30.37,West,271,11.0,19.0,87,-99.99,,,-99.99,,2013-02-13 04:41:00,
2013-02-12 20:51:00,48.0,45.0,30.36,WNW,282,12.0,19.0,88,-99.99,,,-99.99,,2013-02-13 04:51:00,
2013-02-12 21:01:00,48.0,46.0,30.37,West,279,10.0,20.0,90,-99.99,,,-99.99,,2013-02-13 05:01:00,
2013-02-12 21:11:00,49.0,46.0,30.36,West,267,10.0,15.0,91,-99.99,,,-99.99,,2013-02-13 05:11:00,
2013-02-12 21:22:00,49.0,45.0,30.36,West,267,9.0,15.0,87,-99.99,,,-99.99,,2013-02-13 05:22:00,
2013-02-12 21:31:00,49.0,45.0,30.36,West,268,8.0,13.0,86,-99.99,,,-99.99,,2013-02-13 05:31:00,
2013-02-12 21:41:00,49.0,44.0,30.36,WSW,257,7.0,16.0,85,-99.99,,,-99.99,,2013-02-13 05:41:00,
2013-02-12 21:52:00,49.0,44.0,30.36,WSW,250,7.0,14.0,85,-99.99,,,-99.99,,2013-02-13 05:52:00,
2013-02-12 22:02:00,49.0,44.0,30.36,WSW,250,7.0,14.0,85,-99.99,,,-99.99,,2013-02-13 06:02:00,
2013-02-12 22:11:00,49.0,44.0,30.35,WNW,290,9.0,13.0,84,-99.99,,,-99.99,,2013-02-13 06:11:00,
2013-02-12 22:21:00,49.0,44.0,30.35,WSW,246,6.0,9.0,83,-99.99,,,-99.99,,2013-02-13 06:21:00,
2013-02-12 22:31:00,49.0,44.0,30.35,WSW,246,6.0,11.0,83,-99.99,,,-99.99,,2013-02-13 06:31:00,
2013-02-12 22:41:00,49.0,44.0,30.35,WSW,246,6.0,11.0,83,-99.99,,,-99.99,,2013-02-13 06:41:00,
2013-02-12 22:51:00,49.0,44.0,30.35,West,268,8.0,12.0,82,-99.99,,,-99.99,,2013-02-13 06:51:00,
2013-02-12 23:02:00,49.0,44.0,30.35,WSW,258,7.0,10.0,82,-99.99,,,-99.99,,2013-02-13 07:02:00,
2013-02-12 23:11:00,49.0,44.0,30.36,West,261,7.0,13.0,81,-99.99,,,-99.99,,2013-02-13 07:11:00,
2013-02-12 23:21:00,49.0,43.0,30.36,West,272,10.0,16.0,80,-99.99,,,-99.99,,2013-02-13 07:21:00,
2013-02-12 23:31:00,49.0,43.0,30.36,West,266,9.0,14.0,80,-99.99,,,-99.99,,2013-02-13 07:31:00,
2013-02-12 23:41:00,49.0,43.0,30.35,West,279,11.0,20.0,80,-99.99,,,-99.99,,2013-02-13 07:41:00,
2013-02-12 23:51:00,49.0,43.0,30.35,WNW,285,14.0,24.0,78,-99.99,,,-99.99,,2013-02-13 07:51:00,